[[{"header":{"parameterUnit":"m.s-1","parameterCategory":1,"la1":30.2992,"la2":30.254,"lo1":-89.0895,"lo2":-89.0443,"dy":0.0025,"dx":0.0025,"nx":19,"ny":19,"refTime":"2026-04-17T21:00:00:Z","depth":0,"parameterNumber":2,"parameterNumberName":"U-component_of_WINDS"},"data":[0,0,0,-0.7981,-0.7984,-0.8134,-0.8134,-0.8313,-0.8314,0,0,0,0,0,0,0,0,0,0,0,-0.7929,-0.7929,-0.7981,-0.7984,-0.8134,-0.8135,-0.8312,-0.8314,0,0,0,0,0,0,0,0,0,0,0,-0.7928,-0.7929,-0.793,-0.7985,-0.8134,-0.8135,-0.8312,-0.8204,0,0,0,0,0,0,0,0,0,0,-0.8061,-0.8004,-0.7929,-0.793,-0.7986,-0.8133,-0.8135,-0.8199,-0.8211,-0.8239,0,-0.8262,0,-0.829,-0.8325,-0.8326,0,0,0,-0.7991,-0.7995,-0.8042,-0.7931,-0.7987,-0.8133,-0.8068,-0.8206,-0.8219,-0.8254,-0.8264,-0.8271,-0.8293,-0.8326,-0.8327,-0.8468,-0.8468,0,0,-0.7982,-0.7951,-0.8033,-0.805,-0.8026,-0.8063,-0.8073,-0.8214,-0.8223,-0.8265,-0.8276,-0.8296,-0.8327,-0.8328,-0.8467,-0.8468,0,0,0,-0.7954,-0.7945,-0.799,-0.8043,-0.807,-0.8067,-0.8078,-0.8217,-0.8234,-0.8278,-0.8298,-0.8328,-0.833,-0.8467,-0.8467,-0.8454,0,0,0,-0.795,-0.7929,-0.7986,-0.7968,-0.8068,-0.8145,-0.8078,-0.8224,-0.8241,-0.8298,-0.8328,-0.8332,-0.8467,-0.8467,-0.8454,-0.8454,0,0,0,-0.7922,-0.7926,-0.7945,-0.7966,-0.8029,-0.8144,-0.8169,-0.8228,-0.8253,-0.8326,-0.8332,-0.8466,-0.8467,-0.8454,-0.8453,-0.8481,0,0,0,-0.7883,-0.7932,-0.7944,-0.8006,-0.8028,-0.8134,-0.8169,-0.825,-0.8311,-0.8329,-0.8467,-0.8467,-0.8454,-0.8453,-0.8481,-0.8499,-0.8504,0,0,-0.7927,-0.7936,-0.7975,-0.799,-0.8087,-0.8114,-0.8209,-0.8295,-0.833,-0.842,-0.8424,-0.8454,-0.8453,-0.8481,-0.8541,-0.8544,0,0,0,-0.7979,-0.8007,-0.8039,-0.8095,-0.816,-0.8217,-0.8291,-0.8322,-0.8399,-0.837,-0.8473,-0.8473,-0.8491,-0.8501,-0.8504,-0.8521,-0.8471,-0.8471,-0.8471,-0.7998,-0.804,-0.8107,-0.8167,-0.822,-0.8295,-0.8342,-0.8398,-0.8426,-0.8449,-0.8476,-0.8507,-0.8518,-0.852,-0.8537,-0.8489,-0.8489,-0.8489,-0.8489,-0.8067,-0.8113,-0.8147,-0.8224,-0.8268,-0.8334,-0.8407,-0.8424,-0.8492,-0.8491,-0.8508,-0.8503,-0.8523,-0.854,-0.8488,-0.8488,-0.8488,-0.8489,-0.8489,-0.8084,-0.8113,-0.815,-0.8234,-0.8293,-0.8352,-0.8415,-0.8453,-0.8489,-0.8506,-0.8538,-0.8539,-0.8544,-0.8519,-0.8519,-0.8519,-0.8519,-0.8519,-0.8519,-0.8088,-0.8129,-0.8177,-0.8249,-0.8289,-0.8347,-0.8421,-0.8462,-0.8516,-0.8539,-0.854,-0.8564,-0.8517,-0.8504,-0.8521,-0.8521,-0.8521,-0.852,-0.852,-0.8143,-0.8136,-0.821,-0.8249,-0.8337,-0.8393,-0.844,-0.8519,-0.8558,-0.8587,-0.8608,-0.8566,-0.8579,-0.8576,-0.8566,-0.8599,-0.8599,-0.8599,-0.8599,-0.8157,-0.8166,-0.825,-0.8311,-0.8375,-0.8424,-0.8506,-0.8563,-0.8622,-0.8648,-0.8649,-0.8638,-0.8635,-0.8649,-0.8645,-0.8637,-0.8686,-0.8686,-0.8686,-0.8193,-0.821,-0.8272,-0.8328,-0.8399,-0.8459,-0.8536,-0.8605,-0.867,-0.8691,-0.867,-0.8666,-0.865,-0.8642,-0.8663,-0.8656,-0.8641,0,0]},{"header":{"parameterUnit":"m.s-1","parameterCategory":1,"la1":30.2992,"la2":30.254,"lo1":-89.0895,"lo2":-89.0443,"dy":0.0025,"dx":0.0025,"nx":19,"ny":19,"refTime":"2026-04-17T21:00:00:Z","depth":0,"parameterNumber":3,"parameterNumberName":"V-component_of_WINDS"},"data":[0,0,0,-10.2139,-10.2144,-10.2361,-10.2361,-10.2653,-10.2656,0,0,0,0,0,0,0,0,0,0,0,-10.209,-10.2092,-10.2139,-10.2145,-10.236,-10.2361,-10.2653,-10.2656,0,0,0,0,0,0,0,0,0,0,0,-10.2088,-10.2092,-10.2095,-10.2146,-10.236,-10.2361,-10.2652,-10.2482,0,0,0,0,0,0,0,0,0,0,-10.2269,-10.2239,-10.2091,-10.2095,-10.2147,-10.236,-10.2361,-10.2474,-10.2493,-10.2564,0,-10.2635,0,-10.2651,-10.2677,-10.2678,0,0,0,-10.2133,-10.2223,-10.2269,-10.2095,-10.2149,-10.236,-10.226,-10.2484,-10.2506,-10.2589,-10.2639,-10.2649,-10.2656,-10.2679,-10.2681,-10.3143,-10.3145,0,0,-10.2121,-10.2135,-10.2254,-10.2284,-10.2257,-10.2253,-10.2267,-10.2497,-10.255,-10.264,-10.2656,-10.2661,-10.2681,-10.2684,-10.314,-10.3143,0,0,0,-10.2095,-10.2127,-10.2167,-10.2272,-10.231,-10.226,-10.2275,-10.254,-10.2552,-10.2659,-10.2664,-10.2683,-10.2687,-10.3137,-10.3141,-10.3293,0,0,0,-10.2087,-10.2112,-10.2162,-10.2173,-10.2307,-10.2429,-10.2313,-10.2536,-10.2561,-10.2663,-10.2683,-10.269,-10.3134,-10.3139,-10.3282,-10.3361,0,0,0,-10.207,-10.2109,-10.2146,-10.2173,-10.2267,-10.2425,-10.245,-10.2541,-10.2566,-10.2679,-10.2691,-10.3132,-10.3138,-10.3273,-10.3345,-10.3488,0,0,0,-10.2055,-10.2274,-10.2149,-10.2395,-10.2266,-10.2518,-10.2448,-10.2634,-10.2749,-10.2685,-10.3135,-10.3141,-10.327,-10.3336,-10.3478,-10.3612,-10.3669,0,0,-10.2338,-10.2308,-10.2452,-10.2347,-10.2626,-10.2484,-10.2784,-10.2873,-10.2867,-10.305,-10.3061,-10.3286,-10.3344,-10.3486,-10.3983,-10.4029,0,0,0,-10.2546,-10.265,-10.2721,-10.2834,-10.2911,-10.2983,-10.3026,-10.3059,-10.3215,-10.2966,-10.3375,-10.3409,-10.3492,-10.3555,-10.3594,-10.3664,-10.3171,-10.317,-10.3169,-10.2965,-10.2952,-10.3189,-10.3203,-10.3313,-10.3358,-10.3445,-10.3496,-10.3446,-10.3544,-10.3598,-10.3902,-10.3976,-10.4005,-10.4078,-10.3666,-10.3667,-10.3668,-10.3668,-10.3378,-10.3523,-10.3458,-10.3665,-10.3648,-10.3819,-10.387,-10.383,-10.3985,-10.3859,-10.393,-10.3794,-10.4056,-10.4119,-10.3679,-10.3677,-10.3676,-10.3675,-10.3674,-10.3651,-10.3719,-10.376,-10.3925,-10.4052,-10.4056,-10.4211,-10.4188,-10.4168,-10.4239,-10.4295,-10.4292,-10.4287,-10.4268,-10.4269,-10.427,-10.4271,-10.4271,-10.4272,-10.3918,-10.396,-10.4095,-10.4199,-10.4271,-10.4361,-10.4409,-10.4477,-10.4546,-10.4517,-10.4518,-10.4459,-10.4085,-10.3991,-10.4288,-10.4285,-10.4283,-10.4282,-10.4281,-10.4343,-10.4245,-10.4454,-10.4527,-10.4647,-10.4776,-10.4747,-10.4888,-10.494,-10.5017,-10.4944,-10.4671,-10.4636,-10.4605,-10.4528,-10.4946,-10.4946,-10.4946,-10.4946,-10.4573,-10.4556,-10.4767,-10.4884,-10.4996,-10.4993,-10.5227,-10.5267,-10.5291,-10.5323,-10.5259,-10.5154,-10.5123,-10.5107,-10.5065,-10.4993,-10.552,-10.552,-10.5521,-10.4834,-10.4827,-10.5033,-10.5061,-10.5155,-10.5234,-10.5454,-10.5588,-10.5594,-10.5544,-10.5347,-10.5323,-10.5153,-10.5099,-10.5043,-10.4978,-10.4844,0,0]}]]